Location: �perlecques
(50.8057°N, 2.1521°E)
Time: 01:20:47
(UTC+00:00)

Vanguard 1 Rocket - Pass Details

Date: 04 August 2021
Orbit: 650 x 4226 km, 34.3° (Epoch: 25 September)

Event Time Altitude Azimuth Distance (km) Brightness Sun altitude
Rises 10:27:43 0° 244° (WSW) 8,065 12.2 51.8°
Reaches altitude 10° 10:34:21 10° 238° (WSW) 6,624 11.9 52.4°
Maximum altitude 10:51:01 38° 180° (S) 3,292 11.7 53.8°
Drops below altitude 10° 11:00:34 10° 117° (ESE) 3,839 11.2 54.4°
Sets 11:03:16 0° 109° (ESE) 4,467 11.3 54.6°
